Flag for U.S.A. Weather past 2 weeks in Hollywood, California, U.S.A.

Now
99 °F

Sunny.


Feels Like: 95 °F
Forecast: 65 / 94 °F
Wind: 12 mph from Southeast

Location: Van Nuys Airport

Current Time: Jul 23, 2014 at 3:54:31 PM

Latest Report: Jul 23, 2014 at 2:51 PM


Visibility: 10 mi

Pressure: 29.87 "Hg

Humidity: 16%

Dew point: 46 °F

Location of HollywoodLocation

Historic Weather in Hollywood — Graph

°F

Hollywood temperature yesterday

Maximum temperature yesterday: 92 °F (at 4:51 PM)
Minimum temperature yesterday: 65 °F (at 4:51 AM)
Average temperature yesterday: 74 °F

Past Weeks' High & Low Weather Summary

 TemperatureHumidityPressure
High100 °F (Jul 23, 1:51 PM)88% (Jul 10, 3:55 AM)30.05 "Hg (Jul 10, 3:55 AM)
Low62 °F (Jul 18, 4:51 AM)10% (Jul 23, 1:51 PM)29.81 "Hg (Jul 13, 4:51 PM)
Average74 °F59%29.95 "Hg
* Reported Jul 8 1:51 PM — Jul 23 1:51 PM, Hollywood, Weather by CustomWeather, © 2014

Note: Actual official high and low records may vary slightly from our data, if they occured in-between our weather recording intervals... More about our weather records

Advertising

Hollywood weather history for previous 24 hours

 ConditionsComfort  
Time TempWeatherWind HumidityBarometerVisibility
1:51 PM
Jul 23
100 °FSunny.No wind10%29.89 "Hg10 mi
12:51 PM98 °FSunny.6 mph11%29.92 "Hg10 mi
11:51 AM93 °FSunny.No wind20%29.95 "Hg10 mi
10:51 AM87 °FSunny.No wind27%29.97 "Hg10 mi
9:51 AM83 °FSunny.No wind33%29.98 "Hg10 mi
8:51 AM77 °FSunny.No wind42%29.99 "Hg10 mi
7:51 AM72 °FSunny.No wind53%29.99 "Hg10 mi
6:51 AM69 °FClear.No wind59%29.98 "Hg10 mi
5:51 AM67 °FClear.No wind61%29.97 "Hg10 mi
3:51 AM70 °FClear.No wind55%29.96 "Hg10 mi
2:51 AM71 °FClear.No wind51%29.97 "Hg10 mi
1:51 AM71 °FClear.No wind53%29.97 "Hg10 mi
12:51 AM72 °FClear.5 mph49%29.98 "Hg10 mi
10:51 PM
Jul 22
74 °FClear.3 mph45%29.98 "Hg10 mi
9:51 PM75 °FClear.5 mph42%29.98 "Hg10 mi
8:51 PM77 °FSunny.7 mph42%29.97 "Hg10 mi
7:51 PM81 °FSunny.9 mph41%29.96 "Hg10 mi
6:51 PM85 °FSunny.14 mph26%29.96 "Hg10 mi
5:51 PM90 °FSunny.10 mph21%29.95 "Hg10 mi
4:51 PM92 °FSunny.8 mph22%29.96 "Hg10 mi
Weather by CustomWeather, © 2014

See weather overviewHow to use our weather pages